Location: Westminster
(33.3626°N, 96.4619°W)
Time: 13:02:02
(UTC+00:00)

Cosmos 1763 Rocket - Pass Details

Date: 03 July 2022
Orbit: 732 x 780 km, 74.0° (Epoch: 18 August)

Event Time Altitude Azimuth Distance (km) Brightness Sun altitude
Exits shadow 07:01:34 33° 49° (NE) 1,269 4.9 -33.2°
Drops below altitude 10° 07:04:40 10° 29° (NNE) 2,310 6.7 -33.1°
Sets 07:07:07 0° 24° (NNE) 3,246 7.8 -33.0°
